Time,TemperatureF,DewpointF,PressureIn,WindDirection,WindDirectionDegrees,WindSpeedMPH,WindSpeedGustMPH,Humidity,HourlyPrecipIn,Conditions,Clouds,dailyrainin,SolarRadiationWatts/m^2,SoftwareType,DateUTC
2013-06-02 00:00:00,73.6,48.4,29.79,NNW,327,0.0,0.0,41,0.00,,,0.00,0,Wunderground v.1.15,2013-06-02 07:00:00,
2013-06-02 00:10:00,73.0,48.5,29.79,NNW,333,0.0,0.0,42,0.00,,,0.00,0,Wunderground v.1.15,2013-06-02 07:10:00,
2013-06-02 00:20:00,72.6,48.8,29.78,ENE,59,0.0,0.0,43,0.00,,,0.00,0,Wunderground v.1.15,2013-06-02 07:20:00,
2013-06-02 00:30:00,72.1,48.4,29.78,West,273,0.0,0.0,43,0.00,,,0.00,0,Wunderground v.1.15,2013-06-02 07:30:00,
2013-06-02 00:40:00,71.6,48.5,29.78,NNW,332,0.0,0.0,44,0.00,,,0.00,0,Wunderground v.1.15,2013-06-02 07:40:00,
2013-06-02 00:50:00,71.2,48.8,29.78,NNW,332,0.0,0.0,45,0.00,,,0.00,0,Wunderground v.1.15,2013-06-02 07:50:00,
2013-06-02 01:00:00,70.6,48.8,29.78,NW,317,0.0,0.0,46,0.00,,,0.00,0,Wunderground v.1.15,2013-06-02 08:00:00,
2013-06-02 01:10:00,69.9,48.7,29.78,WNW,284,0.0,0.0,47,0.00,,,0.00,0,Wunderground v.1.15,2013-06-02 08:10:00,
2013-06-02 01:20:00,69.5,48.4,29.78,WNW,287,0.0,0.0,47,0.00,,,0.00,0,Wunderground v.1.15,2013-06-02 08:20:00,
2013-06-02 01:30:00,69.1,49.7,29.78,SSE,159,0.0,0.0,50,0.00,,,0.00,0,Wunderground v.1.15,2013-06-02 08:30:00,
2013-06-02 01:40:00,68.5,50.2,29.78,SSE,153,1.0,1.0,52,0.00,,,0.00,0,Wunderground v.1.15,2013-06-02 08:40:00,
2013-06-02 01:50:00,67.8,50.0,29.78,SSE,153,1.0,1.0,53,0.00,,,0.00,0,Wunderground v.1.15,2013-06-02 08:50:00,
2013-06-02 02:00:00,67.1,50.4,29.78,SSE,152,1.0,1.0,55,0.00,,,0.00,0,Wunderground v.1.15,2013-06-02 09:00:00,
2013-06-02 02:10:00,66.4,50.2,29.78,SSE,152,0.0,0.0,56,0.00,,,0.00,0,Wunderground v.1.15,2013-06-02 09:10:00,
2013-06-02 02:20:00,66.0,49.8,29.77,SSE,152,0.0,0.0,56,0.00,,,0.00,0,Wunderground v.1.15,2013-06-02 09:20:00,
2013-06-02 02:30:00,65.6,50.0,29.77,SSE,152,0.0,0.0,57,0.00,,,0.00,0,Wunderground v.1.15,2013-06-02 09:30:00,
2013-06-02 02:40:00,65.1,50.0,29.77,SSE,152,0.0,0.0,58,0.00,,,0.00,0,Wunderground v.1.15,2013-06-02 09:40:00,
2013-06-02 02:50:00,64.6,49.9,29.77,SSE,152,0.0,0.0,59,0.00,,,0.00,0,Wunderground v.1.15,2013-06-02 09:50:00,
2013-06-02 03:00:00,64.3,49.7,29.77,SSE,153,0.0,0.0,59,0.00,,,0.00,0,Wunderground v.1.15,2013-06-02 10:00:00,
2013-06-02 03:10:00,64.0,49.4,29.77,SSE,153,0.0,0.0,59,0.00,,,0.00,0,Wunderground v.1.15,2013-06-02 10:10:00,
2013-06-02 03:20:00,63.5,49.4,29.77,SSE,155,0.0,0.0,60,0.00,,,0.00,0,Wunderground v.1.15,2013-06-02 10:20:00,
2013-06-02 03:30:00,63.0,49.3,29.77,SSE,155,0.0,0.0,61,0.00,,,0.00,0,Wunderground v.1.15,2013-06-02 10:30:00,
2013-06-02 03:40:00,62.5,49.3,29.76,SSE,155,0.0,0.0,62,0.00,,,0.00,0,Wunderground v.1.15,2013-06-02 10:40:00,
2013-06-02 03:50:00,62.2,49.4,29.76,SSE,155,0.0,0.0,63,0.00,,,0.00,0,Wunderground v.1.15,2013-06-02 10:50:00,
2013-06-02 04:00:00,62.1,49.4,29.76,SSE,155,0.0,0.0,63,0.00,,,0.00,0,Wunderground v.1.15,2013-06-02 11:00:00,
2013-06-02 04:10:00,61.9,49.2,29.76,SSE,155,0.0,0.0,63,0.00,,,0.00,0,Wunderground v.1.15,2013-06-02 11:10:00,
2013-06-02 04:20:00,61.6,48.9,29.77,SSE,155,0.0,0.0,63,0.00,,,0.00,0,Wunderground v.1.15,2013-06-02 11:20:00,
2013-06-02 04:30:00,61.3,49.0,29.76,SSE,155,0.0,0.0,64,0.00,,,0.00,0,Wunderground v.1.15,2013-06-02 11:30:00,
2013-06-02 04:40:00,61.2,48.9,29.76,SSE,155,0.0,0.0,64,0.00,,,0.00,0,Wunderground v.1.15,2013-06-02 11:40:00,
2013-06-02 04:50:00,61.0,48.7,29.76,SSE,155,0.0,0.0,64,0.00,,,0.00,0,Wunderground v.1.15,2013-06-02 11:50:00,
2013-06-02 05:00:00,60.8,49.0,29.77,SSE,155,0.0,0.0,65,0.00,,,0.00,0,Wunderground v.1.15,2013-06-02 12:00:00,
2013-06-02 05:10:00,60.6,48.8,29.77,SSE,155,0.0,0.0,65,0.00,,,0.00,0,Wunderground v.1.15,2013-06-02 12:10:00,
2013-06-02 05:20:00,60.3,48.9,29.77,SSE,155,0.0,0.0,66,0.00,,,0.00,0,Wunderground v.1.15,2013-06-02 12:20:00,
2013-06-02 05:30:00,60.0,49.0,29.77,SSE,155,0.0,0.0,67,0.00,,,0.00,0,Wunderground v.1.15,2013-06-02 12:30:00,
2013-06-02 05:40:00,59.7,48.7,29.77,SSE,155,0.0,0.0,67,0.00,,,0.00,0,Wunderground v.1.15,2013-06-02 12:40:00,
2013-06-02 05:50:00,59.5,48.9,29.77,SSE,155,0.0,0.0,68,0.00,,,0.00,0,Wunderground v.1.15,2013-06-02 12:50:00,
2013-06-02 06:00:00,59.5,48.9,29.78,SSE,155,0.0,0.0,68,0.00,,,0.00,9,Wunderground v.1.15,2013-06-02 13:00:00,
2013-06-02 06:10:00,59.4,48.8,29.78,SSE,155,0.0,0.0,68,0.00,,,0.00,19,Wunderground v.1.15,2013-06-02 13:10:00,
2013-06-02 06:20:00,59.5,49.3,29.78,SSE,155,0.0,0.0,69,0.00,,,0.00,26,Wunderground v.1.15,2013-06-02 13:20:00,
2013-06-02 06:30:00,59.7,49.9,29.78,SSE,155,0.0,0.0,70,0.00,,,0.00,33,Wunderground v.1.15,2013-06-02 13:30:00,
2013-06-02 06:40:00,60.2,50.4,29.78,SSE,155,0.0,0.0,70,0.00,,,0.00,42,Wunderground v.1.15,2013-06-02 13:40:00,
2013-06-02 06:50:00,60.7,50.5,29.78,SSE,155,0.0,0.0,69,0.00,,,0.00,49,Wunderground v.1.15,2013-06-02 13:50:00,
2013-06-02 07:00:00,61.0,50.8,29.78,SSE,155,0.0,0.0,69,0.00,,,0.00,165,Wunderground v.1.15,2013-06-02 14:00:00,
2013-06-02 07:10:00,61.8,51.5,29.78,SE,140,1.0,1.0,69,0.00,,,0.00,206,Wunderground v.1.15,2013-06-02 14:10:00,
2013-06-02 07:20:00,62.3,51.6,29.78,SE,133,0.0,1.0,68,0.00,,,0.00,241,Wunderground v.1.15,2013-06-02 14:20:00,
2013-06-02 07:30:00,63.3,51.7,29.78,SSE,162,1.0,1.0,66,0.00,,,0.00,274,Wunderground v.1.15,2013-06-02 14:30:00,
2013-06-02 07:40:00,64.1,52.1,29.78,SSE,162,0.0,0.0,65,0.00,,,0.00,309,Wunderground v.1.15,2013-06-02 14:40:00,
2013-06-02 07:50:00,65.3,52.4,29.78,SSE,162,0.0,0.0,63,0.00,,,0.00,339,Wunderground v.1.15,2013-06-02 14:50:00,
2013-06-02 08:00:00,66.5,53.9,29.78,SSE,153,0.0,1.0,64,0.00,,,0.00,371,Wunderground v.1.15,2013-06-02 15:00:00,
2013-06-02 08:10:00,67.4,54.8,29.78,WNW,297,0.0,0.0,64,0.00,,,0.00,404,Wunderground v.1.15,2013-06-02 15:10:00,
2013-06-02 08:20:00,68.2,54.2,29.78,NW,312,0.0,0.0,61,0.00,,,0.00,438,Wunderground v.1.15,2013-06-02 15:20:00,
2013-06-02 08:30:00,69.3,51.9,29.78,WNW,292,0.0,2.0,54,0.00,,,0.00,473,Wunderground v.1.15,2013-06-02 15:30:00,
2013-06-02 08:40:00,70.2,51.7,29.78,SSW,204,0.0,0.0,52,0.00,,,0.00,508,Wunderground v.1.15,2013-06-02 15:40:00,
2013-06-02 08:50:00,70.8,52.3,29.78,SW,223,0.0,0.0,52,0.00,,,0.00,536,Wunderground v.1.15,2013-06-02 15:50:00,
2013-06-02 09:00:00,71.7,53.1,29.77,WSW,238,0.0,1.0,52,0.00,,,0.00,566,Wunderground v.1.15,2013-06-02 16:00:00,
2013-06-02 09:10:00,72.5,52.2,29.77,WNW,292,1.0,1.0,49,0.00,,,0.00,510,Wunderground v.1.15,2013-06-02 16:10:00,
2013-06-02 09:20:00,72.9,52.1,29.77,WNW,288,0.0,0.0,48,0.00,,,0.00,622,Wunderground v.1.15,2013-06-02 16:20:00,
2013-06-02 09:30:00,73.2,51.8,29.77,WNW,303,0.0,3.0,47,0.00,,,0.00,654,Wunderground v.1.15,2013-06-02 16:30:00,
2013-06-02 09:40:00,74.3,52.8,29.77,WNW,292,0.0,2.0,47,0.00,,,0.00,684,Wunderground v.1.15,2013-06-02 16:40:00,
2013-06-02 09:50:00,74.7,52.5,29.77,WSW,246,1.0,1.0,46,0.00,,,0.00,708,Wunderground v.1.15,2013-06-02 16:50:00,
2013-06-02 10:00:00,75.5,53.9,29.76,West,274,0.0,0.0,47,0.00,,,0.00,733,Wunderground v.1.15,2013-06-02 17:00:00,
2013-06-02 10:10:00,75.9,53.6,29.76,West,271,1.0,1.0,46,0.00,,,0.00,770,Wunderground v.1.15,2013-06-02 17:10:00,
2013-06-02 10:20:00,76.5,53.6,29.76,West,275,1.0,1.0,45,0.00,,,0.00,791,Wunderground v.1.15,2013-06-02 17:20:00,
2013-06-02 10:30:00,77.4,53.8,29.76,WNW,291,0.0,1.0,44,0.00,,,0.00,810,Wunderground v.1.15,2013-06-02 17:30:00,
2013-06-02 10:40:00,79.1,55.3,29.76,WNW,287,0.0,3.0,44,0.00,,,0.00,833,Wunderground v.1.15,2013-06-02 17:40:00,
2013-06-02 10:50:00,80.6,54.7,29.76,WNW,293,1.0,1.0,41,0.00,,,0.00,847,Wunderground v.1.15,2013-06-02 17:50:00,
2013-06-02 11:00:00,81.3,54.7,29.75,West,281,1.0,1.0,40,0.00,,,0.00,868,Wunderground v.1.15,2013-06-02 18:00:00,
2013-06-02 11:10:00,82.0,55.3,29.75,WNW,300,1.0,7.0,40,0.00,,,0.00,889,Wunderground v.1.15,2013-06-02 18:10:00,
2013-06-02 11:20:00,83.0,55.5,29.75,West,279,1.0,1.0,39,0.00,,,0.00,905,Wunderground v.1.15,2013-06-02 18:20:00,
2013-06-02 11:30:00,83.4,55.8,29.75,NW,311,1.0,2.0,39,0.00,,,0.00,919,Wunderground v.1.15,2013-06-02 18:30:00,
2013-06-02 11:40:00,84.3,55.9,29.75,West,272,1.0,3.0,38,0.00,,,0.00,937,Wunderground v.1.15,2013-06-02 18:40:00,
2013-06-02 11:50:00,85.7,56.4,29.74,WNW,282,1.0,1.0,37,0.00,,,0.00,953,Wunderground v.1.15,2013-06-02 18:50:00,
2013-06-02 12:00:00,86.5,56.4,29.74,NNW,327,1.0,1.0,36,0.00,,,0.00,963,Wunderground v.1.15,2013-06-02 19:00:00,
2013-06-02 12:10:00,87.7,55.9,29.73,NW,311,1.0,2.0,34,0.00,,,0.00,970,Wunderground v.1.15,2013-06-02 19:10:00,
2013-06-02 12:20:00,88.4,54.8,29.73,WNW,284,1.0,1.0,32,0.00,,,0.00,977,Wunderground v.1.15,2013-06-02 19:20:00,
2013-06-02 12:30:00,89.3,55.6,29.73,NW,315,1.0,1.0,32,0.00,,,0.00,983,Wunderground v.1.15,2013-06-02 19:30:00,
2013-06-02 12:40:00,89.9,56.1,29.73,WNW,286,1.0,3.0,32,0.00,,,0.00,991,Wunderground v.1.15,2013-06-02 19:40:00,
2013-06-02 12:50:00,89.4,55.7,29.72,WSW,254,0.0,0.0,32,0.00,,,0.00,990,Wunderground v.1.15,2013-06-02 19:50:00,
2013-06-02 13:00:00,89.3,56.4,29.72,West,268,1.0,2.0,33,0.00,,,0.00,993,Wunderground v.1.15,2013-06-02 20:00:00,
2013-06-02 13:10:00,89.2,55.5,29.71,WNW,292,1.0,1.0,32,0.00,,,0.00,993,Wunderground v.1.15,2013-06-02 20:10:00,
2013-06-02 13:20:00,89.2,55.5,29.71,West,280,1.0,1.0,32,0.00,,,0.00,993,Wunderground v.1.15,2013-06-02 20:20:00,
2013-06-02 13:30:00,89.7,55.9,29.71,WNW,298,1.0,1.0,32,0.00,,,0.00,984,Wunderground v.1.15,2013-06-02 20:30:00,
2013-06-02 13:40:00,89.4,55.7,29.71,SW,232,1.0,1.0,32,0.00,,,0.00,984,Wunderground v.1.15,2013-06-02 20:40:00,
2013-06-02 13:50:00,89.4,57.3,29.70,NE,34,1.0,1.0,34,0.00,,,0.00,983,Wunderground v.1.15,2013-06-02 20:50:00,
2013-06-02 14:00:00,89.2,57.2,29.70,SSE,161,1.0,1.0,34,0.00,,,0.00,976,Wunderground v.1.15,2013-06-02 21:00:00,
2013-06-02 14:10:00,88.6,56.6,29.70,ENE,72,0.0,0.0,34,0.00,,,0.00,967,Wunderground v.1.15,2013-06-02 21:10:00,
2013-06-02 14:20:00,89.3,56.4,29.70,NNE,15,1.0,1.0,33,0.00,,,0.00,956,Wunderground v.1.15,2013-06-02 21:20:00,
2013-06-02 14:30:00,89.5,56.6,29.70,ENE,64,1.0,1.0,33,0.00,,,0.00,942,Wunderground v.1.15,2013-06-02 21:30:00,
2013-06-02 14:40:00,88.0,55.3,29.70,North,360,1.0,2.0,33,0.00,,,0.00,928,Wunderground v.1.15,2013-06-02 21:40:00,
2013-06-02 14:50:00,88.4,56.5,29.70,North,5,1.0,1.0,34,0.00,,,0.00,912,Wunderground v.1.15,2013-06-02 21:50:00,
2013-06-02 15:00:00,87.9,55.2,29.70,ENE,75,1.0,1.0,33,0.00,,,0.00,898,Wunderground v.1.15,2013-06-02 22:00:00,
2013-06-02 15:10:00,88.3,55.6,29.70,NW,320,1.0,1.0,33,0.00,,,0.00,805,Wunderground v.1.15,2013-06-02 22:10:00,
2013-06-02 15:20:00,89.3,56.4,29.70,NE,53,1.0,1.0,33,0.00,,,0.00,860,Wunderground v.1.15,2013-06-02 22:20:00,
2013-06-02 15:30:00,89.6,55.8,29.70,North,11,1.0,1.0,32,0.00,,,0.00,840,Wunderground v.1.15,2013-06-02 22:30:00,
2013-06-02 15:40:00,89.6,55.0,29.69,North,11,1.0,1.0,31,0.00,,,0.00,819,Wunderground v.1.15,2013-06-02 22:40:00,
2013-06-02 15:50:00,89.7,55.0,29.69,WNW,303,1.0,1.0,31,0.00,,,0.00,745,Wunderground v.1.15,2013-06-02 22:50:00,
2013-06-02 16:00:00,88.5,54.0,29.69,North,9,1.0,2.0,31,0.00,,,0.00,773,Wunderground v.1.15,2013-06-02 23:00:00,
2013-06-02 16:10:00,88.2,53.7,29.69,NNE,12,1.0,1.0,31,0.00,,,0.00,749,Wunderground v.1.15,2013-06-02 23:10:00,
2013-06-02 16:20:00,88.3,53.8,29.69,ENE,58,0.0,2.0,31,0.00,,,0.00,719,Wunderground v.1.15,2013-06-02 23:20:00,
2013-06-02 16:30:00,88.2,53.7,29.69,ENE,77,0.0,3.0,31,0.00,,,0.00,691,Wunderground v.1.15,2013-06-02 23:30:00,
2013-06-02 16:40:00,88.2,53.7,29.68,SW,221,0.0,0.0,31,0.00,,,0.00,664,Wunderground v.1.15,2013-06-02 23:40:00,
2013-06-02 16:50:00,88.4,53.9,29.68,NE,56,0.0,0.0,31,0.00,,,0.00,638,Wunderground v.1.15,2013-06-02 23:50:00,
2013-06-02 17:00:00,88.3,52.9,29.68,NNW,348,0.0,0.0,30,0.00,,,0.00,606,Wunderground v.1.15,2013-06-03 00:00:00,
2013-06-02 17:10:00,87.9,53.5,29.67,North,9,0.0,0.0,31,0.00,,,0.00,573,Wunderground v.1.15,2013-06-03 00:10:00,
2013-06-02 17:20:00,87.8,52.5,29.67,NNW,344,0.0,0.0,30,0.00,,,0.00,77,Wunderground v.1.15,2013-06-03 00:20:00,
2013-06-02 17:30:00,86.4,52.2,29.67,NE,54,0.0,0.0,31,0.00,,,0.00,95,Wunderground v.1.15,2013-06-03 00:30:00,
2013-06-02 17:40:00,85.1,52.8,29.67,ENE,57,0.0,1.0,33,0.00,,,0.00,37,Wunderground v.1.15,2013-06-03 00:40:00,
2013-06-02 17:50:00,83.9,52.5,29.67,NNE,13,0.0,1.0,34,0.00,,,0.00,35,Wunderground v.1.15,2013-06-03 00:50:00,
2013-06-02 18:00:00,82.6,52.9,29.67,North,11,0.0,0.0,36,0.00,,,0.00,33,Wunderground v.1.15,2013-06-03 01:00:00,
2013-06-02 18:10:00,81.5,52.0,29.67,North,355,0.0,0.0,36,0.00,,,0.00,32,Wunderground v.1.15,2013-06-03 01:10:00,
2013-06-02 18:20:00,80.3,51.7,29.67,West,275,0.0,2.0,37,0.00,,,0.00,30,Wunderground v.1.15,2013-06-03 01:20:00,
2013-06-02 18:30:00,79.4,51.6,29.67,NW,315,0.0,0.0,38,0.00,,,0.00,28,Wunderground v.1.15,2013-06-03 01:30:00,
2013-06-02 18:40:00,78.7,51.7,29.67,North,5,0.0,0.0,39,0.00,,,0.00,26,Wunderground v.1.15,2013-06-03 01:40:00,
2013-06-02 18:50:00,77.9,51.6,29.67,NNE,14,0.0,0.0,40,0.00,,,0.00,25,Wunderground v.1.15,2013-06-03 01:50:00,
2013-06-02 19:00:00,77.4,51.2,29.67,NNW,328,0.0,1.0,40,0.00,,,0.00,23,Wunderground v.1.15,2013-06-03 02:00:00,
2013-06-02 19:10:00,77.1,51.6,29.67,NNE,30,0.0,0.0,41,0.00,,,0.00,21,Wunderground v.1.15,2013-06-03 02:10:00,
2013-06-02 19:20:00,76.7,51.2,29.67,North,10,0.0,1.0,41,0.00,,,0.00,21,Wunderground v.1.15,2013-06-03 02:20:00,
2013-06-02 19:30:00,75.8,51.1,29.68,NE,34,1.0,1.0,42,0.00,,,0.00,19,Wunderground v.1.15,2013-06-03 02:30:00,
2013-06-02 19:40:00,75.4,51.3,29.68,NNE,30,0.0,0.0,43,0.00,,,0.00,16,Wunderground v.1.15,2013-06-03 02:40:00,
2013-06-02 19:50:00,75.0,51.0,29.68,NNE,30,0.0,0.0,43,0.00,,,0.00,14,Wunderground v.1.15,2013-06-03 02:50:00,
2013-06-02 20:00:00,74.6,50.0,29.68,WNW,288,0.0,0.0,42,0.00,,,0.00,11,Wunderground v.1.15,2013-06-03 03:00:00,
2013-06-02 20:10:00,74.1,49.5,29.68,SSE,160,0.0,0.0,42,0.00,,,0.00,7,Wunderground v.1.15,2013-06-03 03:10:00,
2013-06-02 20:20:00,73.7,49.8,29.68,SSE,160,0.0,0.0,43,0.00,,,0.00,0,Wunderground v.1.15,2013-06-03 03:20:00,
2013-06-02 20:30:00,73.5,49.6,29.69,SSE,160,0.0,0.0,43,0.00,,,0.00,0,Wunderground v.1.15,2013-06-03 03:30:00,
2013-06-02 20:40:00,73.1,49.3,29.69,West,262,0.0,2.0,43,0.00,,,0.00,0,Wunderground v.1.15,2013-06-03 03:40:00,
2013-06-02 20:50:00,72.3,49.2,29.69,West,267,1.0,2.0,44,0.00,,,0.00,0,Wunderground v.1.15,2013-06-03 03:50:00,
2013-06-02 21:00:00,71.1,49.3,29.69,West,265,1.0,1.0,46,0.00,,,0.00,0,Wunderground v.1.15,2013-06-03 04:00:00,
2013-06-02 21:10:00,69.8,49.2,29.70,WSW,253,1.0,3.0,48,0.00,,,0.00,0,Wunderground v.1.15,2013-06-03 04:10:00,
2013-06-02 21:20:00,68.6,49.2,29.70,WSW,251,2.0,2.0,50,0.00,,,0.00,0,Wunderground v.1.15,2013-06-03 04:20:00,
2013-06-02 21:30:00,67.7,48.9,29.71,WSW,257,1.0,3.0,51,0.00,,,0.00,0,Wunderground v.1.15,2013-06-03 04:30:00,
2013-06-02 21:40:00,66.9,49.7,29.71,WSW,258,2.0,3.0,54,0.00,,,0.00,0,Wunderground v.1.15,2013-06-03 04:40:00,
2013-06-02 21:50:00,66.3,49.6,29.71,WSW,258,0.0,0.0,55,0.00,,,0.00,0,Wunderground v.1.15,2013-06-03 04:50:00,
2013-06-02 22:00:00,65.8,50.1,29.71,West,259,2.0,3.0,57,0.00,,,0.00,0,Wunderground v.1.15,2013-06-03 05:00:00,
2013-06-02 22:10:00,65.6,50.0,29.72,West,261,0.0,0.0,57,0.00,,,0.00,0,Wunderground v.1.15,2013-06-03 05:10:00,
2013-06-02 22:20:00,65.5,50.3,29.72,West,261,0.0,0.0,58,0.00,,,0.00,0,Wunderground v.1.15,2013-06-03 05:20:00,
2013-06-02 22:30:00,65.2,50.5,29.72,West,261,0.0,0.0,59,0.00,,,0.00,0,Wunderground v.1.15,2013-06-03 05:30:00,
2013-06-02 22:40:00,65.2,50.5,29.72,West,261,0.0,0.0,59,0.00,,,0.00,0,Wunderground v.1.15,2013-06-03 05:40:00,
2013-06-02 22:50:00,65.0,51.2,29.72,West,261,0.0,0.0,61,0.00,,,0.00,0,Wunderground v.1.15,2013-06-03 05:50:00,
2013-06-02 23:00:00,64.9,51.6,29.72,West,261,0.0,0.0,62,0.00,,,0.00,0,Wunderground v.1.15,2013-06-03 06:00:00,
2013-06-02 23:10:00,64.7,51.4,29.72,West,261,0.0,2.0,62,0.00,,,0.00,0,Wunderground v.1.15,2013-06-03 06:10:00,
2013-06-02 23:20:00,64.5,51.2,29.72,West,261,0.0,0.0,62,0.00,,,0.00,0,Wunderground v.1.15,2013-06-03 06:20:00,
2013-06-02 23:30:00,64.4,51.1,29.72,West,261,0.0,0.0,62,0.00,,,0.00,0,Wunderground v.1.15,2013-06-03 06:30:00,
2013-06-02 23:40:00,64.1,51.2,29.72,West,261,0.0,0.0,63,0.00,,,0.00,0,Wunderground v.1.15,2013-06-03 06:40:00,
2013-06-02 23:50:00,63.5,51.1,29.72,West,261,0.0,0.0,64,0.00,,,0.00,0,Wunderground v.1.15,2013-06-03 06:50:00,